Weather History for KJRB - November, 2013

Change the Weather History Date:

Tuesday, November 26, 2013

  Actual Average (KNYC) Record (KNYC)
Temperature  
Mean Temperature 42 °F 44 °F  
Max Temperature 51 °F 50 °F 67 °F (1946)
Min Temperature 35 °F 39 °F 16 °F (1938)
Degree Days  
Heating Degree Days 24 21  
Month to date heating degree days 433  
Since 1 July heating degree days 746  
Cooling Degree Days 0 0  
Month to date cooling degree days 0  
Year to date cooling degree days 1104  
Moisture  
Dew Point 29 °F    
Average Humidity 70    
Maximum Humidity 100    
Minimum Humidity 48    
Precipitation  
Precipitation 0.34 in 0.14 in 1.91 in (1996)
Month to date precipitation 3.46  
Year to date precipitation 45.38  
Snow  
Snow 0.00 in 0.00 in 5.00 in (1898)
Month to date snowfall 0.2  
Since 1 July snowfall 0.2  
Snow Depth -    
Sea Level Pressure  
Sea Level Pressure 30.22 in    
Wind  
Wind Speed 9 mph (WNW)    
Max Wind Speed 21 mph    
Max Gust Speed 31 mph    
Visibility 10 miles    
Events      
T = Trace of Precipitation, MM = Missing Value Source: NWS Daily Summary

Daily Weather History Graph

Daily Weather History Graph

Search for Another Location

Airport or City:

Trip Planner

Search our weather history database for the weather conditions in past years. The results will help you decide how hot, cold, wet, or windy it might be!

Date:

Astronomy

Nov. 26, 2013 Rise Set
Actual Time 6:55 AM EST 4:30 PM EST
Civil Twilight 6:25 AM EST 5:01 PM EST
Nautical Twilight 5:51 AM EST 5:34 PM EST
Astronomical Twilight 5:18 AM EST 6:07 PM EST
Moon No Moon Rise 12:38 PM EST (11/26)
Length of Visible Light 10h 35m
Length of Day
9h 35m
Last Quarter, 41% of the Moon is Illuminated
Nov 26
Last Quarter
Dec 2
New
Dec 9
First Quarter
Dec 17
Full
Dec 25
Last Quarter

Hourly Weather History & Observations

Time (EST) Temp. Windchill Dew Point Humidity Pressure Visibility Wind Dir Wind Speed Gust Speed Precip Events Conditions
12:15 AM 35.6 °F 28.0 °F 21.2 °F 56% 30.36 in 10.0 mi SW 10.4 mph - N/A   Partly Cloudy
12:35 AM 35.6 °F 27.1 °F 21.2 °F 56% 30.36 in 10.0 mi WSW 12.7 mph - N/A   Scattered Clouds
12:55 AM 35.6 °F 27.5 °F 21.2 °F 56% 30.34 in 10.0 mi WSW 11.5 mph - N/A   Scattered Clouds
1:15 AM 35.6 °F 27.5 °F 21.2 °F 56% 30.34 in 10.0 mi WSW 11.5 mph - N/A   Clear
1:35 AM 35.6 °F 27.5 °F 23.0 °F 60% 30.34 in 10.0 mi WSW 11.5 mph - N/A   Clear
1:55 AM 35.6 °F 28.0 °F 23.0 °F 60% 30.34 in 10.0 mi WSW 10.4 mph - N/A   Clear
2:15 AM 35.6 °F 28.0 °F 21.2 °F 56% 30.34 in 10.0 mi WSW 10.4 mph - N/A   Clear
2:35 AM 35.6 °F 28.6 °F 23.0 °F 60% 30.34 in 10.0 mi WSW 9.2 mph - N/A   Clear
2:55 AM 35.6 °F 29.2 °F 21.2 °F 56% 30.33 in 10.0 mi SW 8.1 mph - N/A   Clear
3:15 AM 35.6 °F 29.2 °F 21.2 °F 56% 30.34 in 10.0 mi SW 8.1 mph - N/A   Scattered Clouds
3:35 AM 35.6 °F 28.6 °F 21.2 °F 56% 30.33 in 10.0 mi SW 9.2 mph - N/A   Scattered Clouds
3:55 AM 35.6 °F 29.9 °F 23.0 °F 60% 30.31 in 10.0 mi SW 6.9 mph - N/A   Mostly Cloudy
4:15 AM 35.6 °F 29.2 °F 21.2 °F 56% 30.33 in 10.0 mi SW 8.1 mph - N/A   Overcast
4:35 AM 35.6 °F 29.9 °F 21.2 °F 56% 30.32 in 10.0 mi SW 6.9 mph - N/A   Overcast
4:55 AM 35.6 °F 28.6 °F 21.2 °F 56% 30.33 in 10.0 mi SW 9.2 mph - N/A   Overcast
5:15 AM 35.6 °F 29.2 °F 23.0 °F 60% 30.33 in 10.0 mi West 8.1 mph - N/A   Overcast
5:35 AM 35.6 °F 29.2 °F 21.2 °F 56% 30.34 in 10.0 mi West 8.1 mph - N/A   Overcast
5:55 AM 35.6 °F 29.9 °F 21.2 °F 56% 30.34 in 10.0 mi West 6.9 mph - N/A   Overcast
6:15 AM 35.6 °F 30.7 °F 21.2 °F 56% 30.34 in 10.0 mi WNW 5.8 mph - N/A   Overcast
6:35 AM 35.6 °F 30.7 °F 23.0 °F 60% 30.33 in 10.0 mi WSW 5.8 mph - N/A   Overcast
6:55 AM 35.6 °F 29.9 °F 21.2 °F 56% 30.33 in 10.0 mi West 6.9 mph - N/A   Overcast
7:15 AM 37.4 °F 32.1 °F 23.0 °F 56% 30.33 in 10.0 mi West 6.9 mph - N/A   Overcast
7:35 AM 37.4 °F 32.1 °F 21.2 °F 52% 30.32 in 10.0 mi West 6.9 mph - N/A   Overcast
7:55 AM 37.4 °F 32.1 °F 21.2 °F 52% 30.33 in 10.0 mi West 6.9 mph 31.1 mph 0.02 in   Overcast
8:15 AM 37.4 °F 33.8 °F 21.2 °F 52% 30.34 in 10.0 mi West 4.6 mph - N/A   Overcast
8:35 AM 37.4 °F 34.9 °F 21.2 °F 52% 30.33 in 10.0 mi WSW 3.5 mph - N/A   Overcast
8:55 AM 37.4 °F 33.8 °F 21.2 °F 52% 30.33 in 10.0 mi West 4.6 mph - N/A   Overcast
9:15 AM 37.4 °F 32.8 °F 21.2 °F 52% 30.34 in 10.0 mi WSW 5.8 mph - N/A   Overcast
9:35 AM 37.4 °F 33.8 °F 19.4 °F 48% 30.34 in 10.0 mi WSW 4.6 mph - N/A   Overcast
9:55 AM 39.2 °F 34.2 °F 21.2 °F 49% 30.35 in 10.0 mi WSW 6.9 mph - N/A   Overcast
10:15 AM 39.2 °F 34.2 °F 21.2 °F 49% 30.34 in 10.0 mi SW 6.9 mph - N/A   Overcast
10:35 AM 39.2 °F 35.9 °F 21.2 °F 49% 30.33 in 10.0 mi WSW 4.6 mph - N/A   Overcast
10:55 AM 39.2 °F 35.9 °F 21.2 °F 49% 30.32 in 10.0 mi SW 4.6 mph - N/A   Overcast
11:15 AM 39.2 °F 35.0 °F 23.0 °F 52% 30.31 in 10.0 mi WSW 5.8 mph - N/A   Overcast
11:35 AM 39.2 °F 35.0 °F 23.0 °F 52% 30.31 in 10.0 mi SW 5.8 mph - N/A   Overcast
11:55 AM 39.2 °F 37.0 °F 23.0 °F 52% 30.30 in 10.0 mi SSW 3.5 mph - N/A   Overcast
12:15 PM 39.2 °F 37.0 °F 23.0 °F 52% 30.29 in 10.0 mi SW 3.5 mph - N/A   Overcast
12:35 PM 39.2 °F - 23.0 °F 52% 30.28 in 10.0 mi Calm Calm - N/A   Overcast
12:55 PM 39.2 °F 37.0 °F 24.8 °F 56% 30.28 in 10.0 mi SSW 3.5 mph - N/A   Overcast
1:15 PM 39.2 °F - 23.0 °F 52% 30.27 in 10.0 mi Calm Calm - 0.01 in   Overcast
1:35 PM 39.2 °F - 24.8 °F 56% 30.26 in 10.0 mi Calm Calm - 0.01 in   Overcast
1:55 PM 39.2 °F - 26.6 °F 61% 30.24 in 10.0 mi Calm Calm - 0.01 in   Overcast
2:15 PM 41.0 °F 37.1 °F 32.0 °F 70% 30.23 in 10.0 mi ENE 5.8 mph - N/A   Overcast
2:35 PM 41.0 °F 36.4 °F 32.0 °F 70% 30.23 in 10.0 mi ENE 6.9 mph - N/A   Overcast
2:55 PM 41.0 °F 37.1 °F 33.8 °F 76% 30.23 in 10.0 mi ENE 5.8 mph - N/A   Overcast
3:15 PM 39.2 °F 35.0 °F 35.6 °F 87% 30.22 in 10.0 mi East 5.8 mph - N/A   Overcast
3:35 PM 39.2 °F 35.0 °F 33.8 °F 81% 30.22 in 10.0 mi East 5.8 mph - 0.01 in   Overcast
3:55 PM 39.2 °F 34.2 °F 35.6 °F 87% 30.20 in 10.0 mi East 6.9 mph - 0.01 in   Overcast
4:15 PM 39.2 °F 35.0 °F 35.6 °F 87% 30.19 in 10.0 mi ESE 5.8 mph - N/A   Overcast
4:35 PM 39.2 °F 32.5 °F 35.6 °F 87% 30.19 in 10.0 mi NE 10.4 mph - 0.01 in   Overcast
4:55 PM 39.2 °F 33.6 °F 35.6 °F 87% 30.18 in 10.0 mi NE 8.1 mph - 0.06 in   Overcast
5:15 PM 39.2 °F 32.5 °F 35.6 °F 87% 30.18 in 10.0 mi NE 10.4 mph - N/A   Overcast
5:35 PM 39.2 °F 33.0 °F 37.4 °F 93% 30.18 in 10.0 mi NE 9.2 mph - 0.01 in   Overcast
5:55 PM 39.2 °F 32.5 °F 37.4 °F 93% 30.17 in 10.0 mi NE 10.4 mph - 0.01 in   Overcast
6:15 PM 39.2 °F 32.0 °F 37.4 °F 93% 30.15 in 10.0 mi NE 11.5 mph - N/A   Overcast
6:35 PM 39.2 °F 32.0 °F 37.4 °F 93% 30.14 in 10.0 mi NNE 11.5 mph - 0.01 in   Overcast
6:55 PM 39.2 °F 31.6 °F 37.4 °F 93% 30.13 in 10.0 mi NNE 12.7 mph - 0.01 in   Overcast
7:15 PM 39.2 °F 32.0 °F 39.2 °F 100% 30.12 in 10.0 mi NE 11.5 mph - N/A   Overcast
7:35 PM 41.0 °F 34.3 °F 39.2 °F 93% 30.11 in 10.0 mi NNE 11.5 mph - 0.01 in   Overcast
7:55 PM 41.0 °F 33.9 °F 39.2 °F 93% 30.09 in 10.0 mi NNE 12.7 mph - 0.02 in   Overcast
8:15 PM 41.0 °F 32.8 °F 39.2 °F 93% 30.06 in 10.0 mi NNE 16.1 mph - 0.01 in   Overcast
8:35 PM 41.0 °F 32.8 °F 39.2 °F 93% 30.06 in 10.0 mi NNE 16.1 mph 19.6 mph 0.01 in   Overcast
8:55 PM 42.8 °F 34.8 °F 39.2 °F 87% 30.03 in 10.0 mi NNE 17.3 mph - 0.02 in   Overcast
9:15 PM 42.8 °F 34.3 °F 41.0 °F 93% 30.00 in 9.0 mi NNE 19.6 mph 25.3 mph 0.01 in   Overcast
9:35 PM 42.8 °F 34.0 °F 42.8 °F 100% 29.97 in 7.0 mi NNE 20.7 mph - 0.01 in   Overcast
9:55 PM 44.6 °F 36.9 °F 42.8 °F 93% 29.94 in 10.0 mi NNE 18.4 mph 23.0 mph 0.03 in   Overcast
10:15 PM 44.6 °F 37.2 °F 44.6 °F 100% 29.92 in 9.0 mi NNE 17.3 mph 23.0 mph 0.01 in   Overcast
10:35 PM 46.4 °F 40.1 °F 46.4 °F 100% 29.90 in 7.0 mi NNE 15.0 mph 21.9 mph 0.02 in   Overcast
10:55 PM 48.2 °F - 46.4 °F 93% 29.87 in 7.0 mi NNE 16.1 mph - 0.04 in   Overcast
11:15 PM 48.2 °F - 46.4 °F 93% 29.85 in 5.0 mi NNE 13.8 mph - 0.05 in   Overcast
11:35 PM 48.2 °F - 48.2 °F 100% 29.81 in 5.0 mi NNE 15.0 mph - 0.07 in   Overcast
11:55 PM 51.8 °F - 51.8 °F 100% 29.79 in 7.0 mi NE 11.5 mph 17.3 mph 0.11 in   Overcast